This is the latest recevied weather packets stored in our database for station/object KW4UJ. If no packets are shown the sender has not sent any weather packets the latest 10 day(s).
| Time | Temp. | Humidity | Pressure | Rain* | Wind** | Luminosity | Snow |
|---|---|---|---|---|---|---|---|
| 1787937636 | 30° C | 66% | 1016.5 hPa | 0 mm | - | 619 W/m² | - |
| 1787937332 | 29.44° C | 67% | 1016.5 hPa | 0 mm | - | 565 W/m² | - |
| 1787937027 | 28.89° C | 67% | 1016.7 hPa | 0 mm | - | 231 W/m² | - |
| 1787936726 | 28.89° C | 67% | 1016.8 hPa | 0 mm | - | 629 W/m² | - |
| 1787936421 | 28.89° C | 66% | 1016.9 hPa | 0 mm | - | 606 W/m² | - |
| 1787936121 | 29.44° C | 66% | 1016.8 hPa | 0 mm | - | 130 W/m² | - |
| 1787935817 | 28.89° C | 66% | 1016.7 hPa | 0 mm | - | 600 W/m² | - |
| 1787935513 | 29.44° C | 66% | 1016.9 hPa | 0 mm | - | 575 W/m² | - |
| 1787935209 | 29.44° C | 66% | 1016.9 hPa | 0 mm | - | 583 W/m² | - |
| 1787934904 | 28.89° C | 66% | 1016.9 hPa | 0 mm | - | 580 W/m² | - |
| 1787934603 | 28.33° C | 68% | 1017 hPa | 0 mm | - | 575 W/m² | - |
| 1787934298 | 28.33° C | 66% | 1017 hPa | 0 mm | - | 316 W/m² | - |
| 1787933997 | 28.89° C | 67% | 1016.8 hPa | 0 mm | - | 142 W/m² | - |
| 1787933696 | 28.33° C | 69% | 1017 hPa | 0 mm | - | 108 W/m² | - |
| 1787933391 | 27.78° C | 70% | 1016.9 hPa | 0 mm | - | 107 W/m² | - |
| 1787933086 | 27.78° C | 71% | 1017.1 hPa | 0 mm | - | 117 W/m² | - |
| 1787932784 | 27.78° C | 70% | 1017.2 hPa | 0 mm | - | 134 W/m² | - |
| 1787932485 | 27.78° C | 69% | 1017.2 hPa | 0 mm | - | 150 W/m² | - |
| 1787932174 | 27.78° C | 71% | 1017.3 hPa | 0 mm | - | 161 W/m² | - |
| 1787931872 | 27.78° C | 70% | 1017.3 hPa | 0 mm | - | 219 W/m² | - |
| 1787931568 | 27.78° C | 70% | 1017.3 hPa | 0 mm | - | 262 W/m² | - |
| 1787931262 | 27.22° C | 70% | 1017.2 hPa | 0 mm | - | 253 W/m² | - |
| 1787930962 | 27.22° C | 71% | 1017.2 hPa | 0 mm | - | 194 W/m² | - |
| 1787930661 | 27.22° C | 71% | 1017.1 hPa | 0 mm | - | 140 W/m² | - |
| 1787930356 | 26.67° C | 71% | 1017 hPa | 0 mm | - | 135 W/m² | - |
* Rain latest hour (hover to see other rain measurements)
** Current wind speed in m/s (hover to see current wind gust speed)